{"data":{"norad_id":54664,"intl_designator":"2022-166Y","name":"ONEWEB-0600","alt_names":[],"object_type":"PAYLOAD","status":"ACTIVE","operator":null,"country":"UK","launch_date":"2022-12-08","launch_site_code":"AFETR","launch_vehicle":null,"mission":null,"orbit_class":"UNKNOWN","rcs_meters":null,"size_class":null,"mass_kg":null,"dimensions":null,"purposes":["comms"],"wikipedia_slug":null,"has_3d_model":false,"image_url":null,"decayed_at":null,"tle_current":{"epoch":"2026-05-25T00:43:42.760128Z","epoch_age_seconds":76463,"freshness":"FRESH","line1":"1 54664U 22166Y   26145.03035602  .00000028  00000+0  35733-4 0  9993","line2":"2 54664  87.9252 248.5865 0001934  93.4875 266.6480 13.21826980168457","mean_motion":13.2182698,"eccentricity":0.0001934,"inclination_deg":87.9252,"raan_deg":248.5865,"arg_perigee_deg":93.4875,"mean_anomaly_deg":266.648,"bstar":3.5733e-5,"rev_number":16845,"period_min":108.94012770113,"perigee_km":1176.2883252773,"apogee_km":1179.2109422272,"semimajor_km":7555.8866337523,"source":"CELESTRAK","updated_at":"2026-05-25T13:38:22.634644Z"}}}